Home   Weather   Waterbury   Past weeks

Flag for USA Past Weather in Waterbury, Connecticut, USA — Yesterday and Last 2 Weeks

Now
55 °F

Fog.


Feels Like: 52 °F
Forecast: 47 / 57 °F
Wind: 13 mph from South

Location: Oxford

Current Time: Feb 25, 2017 at 11:33:13 am

Latest Report: Feb 25, 2017 at 10:55 am


Visibility: 3 mi

Pressure: 29.74 "Hg

Humidity: 94%

Dew Point: 54 °F

Location of WaterburyLocation

Past Weather in Waterbury — Graph

°F

Waterbury Temperature Yesterday

Maximum temperature yesterday: 68 °F (at 12:45 pm)
Minimum temperature yesterday: 48 °F (at 3:55 am)
Average temperature yesterday: 56 °F

High & Low Weather Summary for the Past Weeks

 TemperatureHumidityPressure
High68 °F (Feb 24, 12:45 pm)94% (Feb 25, 5:55 am)30.37 "Hg (Feb 25, 5:55 am)
Low21 °F (Feb 10, 9:55 am)29% (Feb 20, 4:50 pm)29.27 "Hg (Feb 15, 4:50 pm)
Average37 °F63%29.86 "Hg
* Reported Feb 10 9:55 am — Feb 25 9:55 am, Waterbury, Weather by CustomWeather, © 2017

Note: Actual official high and low records may vary slightly from our data, if they occured in-between our weather recording intervals... More about our weather records

Advertising

Waterbury Weather History for the Previous 24 Hours

Scroll right to see more
 ConditionsComfort  
Time TempWeatherWind HumidityBarometerVisibility
9:55 am
Sat, Feb 25
55 °FFog.12 mph94%29.78 "Hg3 mi
8:52 am54 °FFog.9 mph88%29.79 "Hg1 mi
7:52 am54 °FFog.6 mph88%29.82 "Hg0 mi
6:55 am54 °FFog.7 mph94%29.81 "Hg0 mi
5:55 am54 °FLow clouds.8 mph94%29.81 "Hg0 mi
5:15 am55 °FLow clouds.8 mph88%29.82 "Hg0 mi
4:55 am55 °FLow clouds.7 mph88%29.83 "Hg0 mi
4:15 am55 °FLow clouds.7 mph88%29.84 "Hg0 mi
3:55 am55 °FLow clouds.7 mph88%29.83 "Hg1 mi
3:35 am55 °FLow clouds.8 mph88%29.84 "Hg2 mi
2:55 am55 °FLow clouds.7 mph88%29.85 "Hg0 mi
2:15 am55 °FLow clouds.7 mph88%29.85 "Hg1 mi
1:55 am55 °FLow clouds.5 mph88%29.86 "Hg0 mi
1:15 am55 °FLow clouds.7 mph88%29.86 "Hg0 mi
12:55 am55 °FLow clouds.8 mph88%29.86 "Hg1 mi
12:15 am55 °FLow clouds.6 mph88%29.87 "Hg1 mi
11:55 pm
Fri, Feb 24
55 °FLow clouds.6 mph88%29.88 "Hg0 mi
11:15 pm55 °FLow clouds.7 mph88%29.89 "Hg0 mi
10:55 pm55 °FLow clouds.7 mph88%29.88 "Hg1 mi
10:35 pm55 °FLow clouds.10 mph88%29.89 "Hg2 mi
9:55 pm55 °FLow clouds.10 mph88%29.88 "Hg5 mi
9:35 pm55 °FLow clouds.9 mph88%29.89 "Hg6 mi
8:50 pm55 °FPassing clouds.8 mph82%29.89 "Hg10 mi
8:30 pm55 °FPassing clouds.8 mph82%29.89 "Hg10 mi
7:50 pm55 °FPassing clouds.12 mph82%29.89 "Hg10 mi
6:50 pm57 °FPassing clouds.12 mph72%29.89 "Hg10 mi
5:50 pm61 °FPassing clouds.14 mph63%29.89 "Hg10 mi
4:50 pm63 °FScattered clouds.14 mph64%29.88 "Hg10 mi
3:45 pm66 °FPassing clouds.14 mph60%29.89 "Hg10 mi
2:45 pm66 °FPassing clouds.17 mph60%29.89 "Hg10 mi
1:45 pm68 °FPassing clouds.17 mph56%29.89 "Hg10 mi
12:45 pm68 °FPassing clouds.12 mph56%29.92 "Hg10 mi
11:45 am66 °FPassing clouds.12 mph60%29.94 "Hg10 mi
Weather by CustomWeather, © 2017

See weather overviewHow to use our weather pages